EW6329 Weather Reports


time (UTC)temp
F
wind
direction
speed
knots
gust
knots
rain 1hr
in
rain 24hr
in
rain mn
in
humidity
%
barometer
mb
20260906064600 80 299 0.0 0.0 0.00 0.00 0.00 80 1009.0
20260906063010 80 299 0.0 0.0 0.00 0.00 0.00 80 1009.1
20260906061524 80 299 0.0 0.0 0.00 0.00 0.00 80 1009.3
20260906060037 81 299 0.0 0.0 0.00 0.00 0.00 80 1009.3
20260906054603 81 299 0.0 0.0 0.00 0.00 0.00 80 1009.4
20260906053104 81 298 0.0 0.0 0.00 0.00 0.00 79 1009.4
20260906051512 81 298 0.0 0.0 0.00 0.00 0.00 78 1009.3
20260906050029 82 298 0.0 0.0 0.00 0.00 0.00 78 1009.3
20260906044537 82 299 0.0 0.0 0.00 0.00 0.00 77 1009.3
20260906043050 82 298 0.0 0.0 0.00 0.00 0.00 75 1009.1
20260906041604 83 298 0.0 0.0 0.00 0.00 0.00 73 1009.2
20260906040015 83 298 0.0 0.0 0.00 0.00 0.00 71 1009.2
20260906034536 84 298 0.0 0.0 0.00 0.00 0.00 69 1009.2
20260906033044 84 298 0.0 0.0 0.00 0.00 0.00 69 1009.3
20260906031612 85 298 0.0 0.0 0.00 0.00 0.00 69 1009.2
20260906030010 85 298 0.0 0.0 0.00 0.00 0.00 69 1009.1
20260906024542 85 298 0.0 0.0 0.00 0.00 0.00 68 1009.2
20260906023036 86 298 0.0 0.0 0.00 0.00 0.00 67 1009.1
20260906021546 87 298 0.0 0.0 0.00 0.00 0.00 66 1009.0
20260906020101 87 298 0.0 0.0 0.00 0.00 0.00 65 1008.8
20260906014516 88 298 0.0 0.0 0.00 0.00 0.00 63 1008.7
20260906013022 89 298 0.0 0.0 0.00 0.00 0.00 62 1008.5
20260906011535 90 298 0.0 0.0 0.00 0.00 0.00 59 1008.2
20260906010052 91 298 0.0 0.0 0.00 0.00 0.00 58 1008.1
20260906004604 92 298 0.0 0.0 0.00 0.00 0.00 55 1008.1
20260906003012 93 298 0.0 0.0 0.00 0.00 0.00 54 1008.0
20260906001531 93 298 0.0 0.0 0.00 0.00 0.00 54 1008.1
20260906000048 93 298 0.0 0.0 0.00 0.00 0.00 53 1008.1
20260905234559 93 298 0.0 0.0 0.00 0.00 0.00 54 1008.1
20260905233001 93 298 0.0 0.0 0.00 0.00 0.00 54 1008.1
20260905231515 94 298 0.0 0.0 0.00 0.00 0.00 51 1008.1
20260905230033 94 298 0.0 0.0 0.00 0.00 0.00 49 1008.3
20260905224541 95 297 0.0 0.9 0.00 0.00 0.00 51 1008.2
20260905223054 95 298 0.0 0.9 0.00 0.00 0.00 48 1008.2
20260905221506 95 298 0.0 1.7 0.00 0.00 0.00 50 1008.3
20260905220022 96 298 0.0 1.7 0.00 0.00 0.00 48 1008.4
20260905214531 96 298 0.0 1.7 0.00 0.00 0.00 49 1008.4
20260905213047 97 298 0.0 1.7 0.00 0.00 0.00 48 1008.4
20260905211609 98 298 0.0 1.7 0.00 0.00 0.00 46 1008.4
20260905210010 98 298 0.0 1.7 0.00 0.00 0.00 47 1008.6
20260905204521 97 297 0.0 1.7 0.00 0.00 0.00 49 1008.8
20260905203036 97 298 0.0 1.7 0.00 0.00 0.00 48 1009.0
20260905201553 97 304 0.0 1.7 0.00 0.00 0.00 45 1009.3
20260905200120 98 304 0.0 1.7 0.00 0.00 0.00 46 1009.3
20260905194513 99 304 0.0 2.6 0.00 0.00 0.00 43 1009.4
20260905193025 99 304 0.0 1.7 0.00 0.00 0.00 43 1009.7
20260905191537 99 304 0.0 1.7 0.00 0.00 0.00 44 1009.9
20260905190050 98 304 0.0 1.7 0.00 0.00 0.00 45 1010.0
20260905184609 99 304 0.0 1.7 0.00 0.00 0.00 45 1010.2
20260905183015 98 207 0.0 3.5 0.00 0.00 0.00 46 1010.4
20260905181526 98 300 0.0 1.7 0.00 0.00 0.00 46 1010.5
20260905180038 97 287 0.0 1.7 0.00 0.00 0.00 47 1010.7
20260905174555 96 286 0.0 2.6 0.00 0.00 0.00 49 1010.8
20260905173106 96 280 0.0 2.6 0.00 0.00 0.00 48 1010.8
20260905171510 95 280 0.0 1.7 0.00 0.00 0.00 51 1011.1
20260905170021 94 276 0.0 1.7 0.00 0.00 0.00 54 1011.2
20260905164534 93 276 0.0 1.7 0.00 0.00 0.00 56 1011.4
20260905163047 92 276 0.0 1.7 0.00 0.00 0.00 58 1011.6
20260905161558 92 275 0.9 1.7 0.00 0.00 0.00 60 1011.7
20260905160007 90 276 0.0 1.7 0.00 0.00 0.00 64 1011.9
20260905154519 89 276 0.0 0.9 0.00 0.00 0.00 64 1011.8
20260905153031 88 276 0.0 1.7 0.00 0.00 0.00 67 1011.9
20260905151547 87 276 0.0 1.7 0.00 0.00 0.00 70 1011.9
20260905150054 85 276 0.0 1.7 0.00 0.00 0.00 71 1012.0
20260905144505 84 276 0.0 1.7 0.00 0.00 0.00 74 1011.9
20260905143015 83 276 0.0 1.7 0.00 0.00 0.00 77 1011.8
20260905141530 81 276 0.0 1.7 0.00 0.00 0.00 82 1011.9
20260905140043 79 275 0.0 1.7 0.00 0.00 0.00 85 1011.8
20260905134600 78 275 0.0 0.0 0.00 0.00 0.00 88 1011.8
20260905133005 77 277 0.0 0.0 0.00 0.00 0.00 89 1011.7
20260905131518 77 277 0.0 0.0 0.00 0.00 0.00 89 1011.7
20260905130028 76 277 0.0 0.0 0.00 0.00 0.00 89 1011.6
20260905124543 76 277 0.0 0.0 0.00 0.00 0.00 89 1011.7
20260905123053 76 277 0.0 0.0 0.00 0.00 0.00 88 1011.6
20260905121504 76 277 0.0 0.0 0.00 0.00 0.00 88 1011.4
20260905120017 76 277 0.0 0.0 0.00 0.00 0.00 88 1011.3
20260905114532 76 277 0.0 0.0 0.00 0.00 0.00 87 1011.3
20260905113045 76 277 0.0 0.0 0.00 0.00 0.00 87 1011.1
20260905111557 76 277 0.0 0.0 0.00 0.00 0.00 87 1011.0
20260905110007 77 277 0.0 0.0 0.00 0.00 0.00 86 1011.0
20260905104520 77 277 0.0 0.0 0.00 0.00 0.00 85 1010.9
20260905103034 77 277 0.0 0.0 0.00 0.00 0.00 85 1010.8
20260905101602 77 277 0.0 0.0 0.00 0.00 0.00 84 1010.7
20260905100100 77 277 0.0 0.0 0.00 0.00 0.00 83 1010.8
20260905094510 77 277 0.0 0.0 0.00 0.00 0.00 83 1010.8
20260905093024 78 277 0.0 0.0 0.00 0.00 0.00 83 1010.7
20260905091540 78 277 0.0 0.0 0.00 0.00 0.00 82 1010.7
20260905090051 78 277 0.0 0.0 0.00 0.00 0.00 82 1010.7
20260905084604 78 277 0.0 0.0 0.00 0.00 0.00 81 1010.6
20260905083019 79 277 0.0 0.0 0.00 0.00 0.00 81 1010.6
20260905081529 79 277 0.0 0.0 0.00 0.00 0.00 81 1010.8
20260905080040 79 277 0.0 0.0 0.00 0.00 0.00 80 1010.8
20260905074553 79 277 0.0 0.0 0.00 0.00 0.00 79 1010.7
20260905073003 80 277 0.0 0.0 0.00 0.00 0.00 78 1010.8
20260905071518 80 277 0.0 0.0 0.00 0.00 0.00 78 1010.9
20260905070030 80 277 0.0 0.0 0.00 0.00 0.00 78 1010.9